Williamsport, PA

11:19 PM EDT on August 20, 2019 (GMT -0400)
Williamsport Rgnl

Weather History for KIPT - July, 2019

Change the Weather History Date:

Tuesday, July 16, 2019

  Actual Average Record
Temperature  
Mean Temperature 75 °F 73 °F  
Max Temperature 89 °F 84 °F 103 °F (1988)
Min Temperature 61 °F 62 °F 47 °F (1946)
Degree Days  
Heating Degree Days 0 0  
Month to date heating degree days 0 0  
Since 1 June heating degree days 29 37  
Since 1 July heating degree days 0 0  
Cooling Degree Days 10 8  
Month to date cooling degree days 170 125  
Year to date cooling degree days 353 314  
Since 1 June cooling degree days 301 271  
Growing Degree Days 25 (Base 50)    
Moisture  
Dew Point 66 °F    
Average Humidity 74    
Maximum Humidity 97    
Minimum Humidity 51    
Precipitation  
Precipitation 0.28 in 0.14 in 1.72 in (1910)
Month to date precipitation 3.15 2.13  
Year to date precipitation 29.43 20.96  
Sea Level Pressure  
Sea Level Pressure 30.03 in    
Wind  
Wind Speed 4 mph (ENE)    
Max Wind Speed 26 mph    
Max Gust Speed 41 mph    
Visibility 9 miles    
Events Rain , Thunderstorm    
T = Trace of Precipitation, MM = Missing Value Source: NWS Daily Summary

Daily Weather History Graph

Daily Weather History Graph

Search for Another Location

Airport or City:

Astronomy

Jul. 16, 2019 Rise Set
Actual Time 5:48 AM EDT 8:38 PM EDT
Civil Twilight 5:15 AM EDT 9:11 PM EDT
Nautical Twilight 4:34 AM EDT 9:52 PM EDT
Astronomical Twilight 3:46 AM EDT 10:39 PM EDT
Moon 8:43 PM EDT (7/16) 5:24 AM EDT (7/16)
Length of Visible Light 15h 55m
Length of Day
14h 50m
Full, 100% of the Moon is Illuminated
Jul 16
Full
Jul 16
Full
Jul 24
Last Quarter
Jul 31
New
Aug 7
First Quarter

Hourly Weather History & Observations

Time (EDT) Temp. Heat Index Dew Point Humidity Pressure Visibility Wind Dir Wind Speed Gust Speed Precip Events Conditions
12:54 AM 66.0 °F - 61.0 °F 84% 30.07 in 10.0 mi NW 3.5 mph - N/A   Clear
1:54 AM 64.0 °F - 61.0 °F 90% 30.06 in 10.0 mi NNW 3.5 mph - N/A   Clear
2:54 AM 63.0 °F - 60.1 °F 90% 30.07 in 10.0 mi NNW 3.5 mph - N/A   Clear
3:54 AM 62.1 °F - 59.0 °F 90% 30.05 in 10.0 mi Calm Calm - N/A   Clear
4:54 AM 62.1 °F - 59.0 °F 90% 30.06 in 10.0 mi Calm Calm - N/A   Clear
5:54 AM 61.0 °F - 59.0 °F 93% 30.07 in 10.0 mi NW 3.5 mph - N/A   Clear
6:54 AM 63.0 °F - 60.1 °F 90% 30.09 in 10.0 mi North 3.5 mph - N/A   Clear
7:54 AM 66.9 °F - 61.0 °F 81% 30.09 in 10.0 mi Calm Calm - N/A   Clear
8:54 AM 70.0 °F - 61.0 °F 73% 30.09 in 10.0 mi WNW 3.5 mph - N/A   Clear
9:54 AM 72.0 °F - 61.0 °F 68% 30.09 in 10.0 mi Calm Calm - N/A   Partly Cloudy
10:54 AM 75.9 °F - 63.0 °F 64% 30.08 in 10.0 mi Variable 3.5 mph - N/A   Partly Cloudy
11:54 AM 80.1 °F 81.9 °F 64.9 °F 60% 30.06 in 10.0 mi Calm Calm - N/A   Clear
12:54 PM 84.0 °F 87.0 °F 68.0 °F 58% 30.05 in 10.0 mi SE 4.6 mph - N/A   Partly Cloudy
1:54 PM 86.0 °F 88.8 °F 66.9 °F 53% 30.02 in 10.0 mi ENE 3.5 mph - N/A   Clear
2:52 PM 87.8 °F 91.4 °F 68.0 °F 52% 30.01 in 10.0 mi SSE 6.9 mph - N/A Thunderstorm Clear
2:54 PM 87.1 °F 91.3 °F 69.1 °F 55% 30.00 in 10.0 mi Variable 3.5 mph - N/A Thunderstorm Scattered Clouds
3:07 PM 89.1 °F 94.1 °F 70.0 °F 53% 30.00 in 10.0 mi Variable 4.6 mph - N/A   Scattered Clouds
3:54 PM 88.0 °F 92.9 °F 70.0 °F 55% 29.98 in 10.0 mi South 5.8 mph - N/A   Scattered Clouds
4:13 PM 87.1 °F 91.3 °F 69.1 °F 55% 29.99 in 10.0 mi South 9.2 mph - N/A Thunderstorm Partly Cloudy
4:28 PM 77.0 °F - 68.0 °F 74% 30.02 in 1.2 mi West 15.0 mph 41.4 mph 0.02 in Rain , Thunderstorm Heavy Rain
4:33 PM 75.0 °F - 68.0 °F 79% 30.02 in 0.8 mi Calm Calm - 0.14 in Rain , Thunderstorm Heavy Rain
4:43 PM 75.9 °F - 71.1 °F 85% 30.01 in 2.5 mi Variable 4.6 mph - 0.26 in Rain , Thunderstorm Heavy Rain
4:48 PM 75.2 °F - 71.6 °F 89% 30.01 in 9.0 mi East 8.1 mph - 0.26 in Rain , Thunderstorm Light Thunderstorms and Rain
4:54 PM 75.9 °F - 71.1 °F 85% 30.01 in 10.0 mi NE 8.1 mph - 0.26 in Thunderstorm Thunderstorm
5:02 PM 75.9 °F - 70.0 °F 82% 30.01 in 10.0 mi NE 8.1 mph - N/A   Mostly Cloudy
5:10 PM 75.9 °F - 69.1 °F 79% 30.01 in 10.0 mi East 4.6 mph - N/A Thunderstorm Mostly Cloudy
5:39 PM 75.9 °F - 71.1 °F 85% 30.01 in 10.0 mi ESE 6.9 mph - 0.00 in Rain Light Rain
5:54 PM 75.9 °F - 71.1 °F 85% 30.00 in 10.0 mi East 6.9 mph - 0.00 in Rain Light Rain
6:54 PM 75.0 °F - 70.0 °F 84% 30.00 in 10.0 mi ENE 4.6 mph - 0.00 in   Scattered Clouds
7:54 PM 75.0 °F - 71.1 °F 87% 30.00 in 10.0 mi SE 3.5 mph - 0.01 in   Mostly Cloudy
8:54 PM 73.9 °F - 71.1 °F 91% 30.00 in 10.0 mi East 5.8 mph - 0.01 in   Clear
9:54 PM 73.0 °F - 70.0 °F 90% 30.02 in 10.0 mi East 4.6 mph - N/A   Overcast
10:54 PM 73.0 °F - 70.0 °F 90% 30.01 in 10.0 mi East 9.2 mph - 0.00 in   Mostly Cloudy
11:54 PM 73.9 °F - 70.0 °F 87% 30.01 in 10.0 mi East 3.5 mph - N/A   Clear